Wind_Speed
25 26 29 29 27 24 21 20 20 18 19 21 21 21 21 22 24 24 23 21 21 22 22 24 24 23 22 22 23 24 23 22 22 19 15 12 8 7 6 6 7 9 10 12 14 16 17 17 18 19 20 21 23 23 24 25 26 27 27 28 28 28 28 28 28 28 28 28 29 30 30 30 29 29 30 30 30 30 30 29 28 27 26 25 24
26 26 28 30 30 29 26 23 19 16 18 20 21 22 23 22 22 21 20 20 21 23 24 24 24 23 23 23 22 21 20 19 18 17 13 9 7 7 7 8 9 10 11 12 14 16 17 17 18 20 21 22 24 24 25 26 26 27 27 28 29 29 29 29 29 28 28 29 29 30 31 31 31 31 32 31 31 31 32 32 31 30 28 27 27
25 25 27 29 30 30 31 27 20 15 17 19 21 22 23 22 21 19 20 21 23 25 26 26 24 23 22 22 20 17 16 17 17 15 12 10 9 9 9 9 10 11 12 13 15 16 17 19 20 21 22 23 24 25 25 25 26 27 28 29 30 30 30 30 30 30 30 30 30 30 30 31 31 32 33 33 32 32 32 33 32 31 30 30 29
23 25 26 27 28 28 27 22 16 15 16 18 20 21 21 20 18 17 19 22 24 26 27 27 25 23 22 21 19 16 16 17 17 15 15 13 12 12 11 12 12 13 14 15 16 17 18 20 21 22 23 24 24 24 25 25 26 27 27 28 29 31 32 33 33 33 32 32 32 32 32 31 30 30 31 32 34 34 33 33 32 32 32 32 32
22 23 24 26 29 30 25 16 13 15 16 17 18 18 18 17 15 15 18 21 23 23 23 23 22 22 22 21 19 18 17 17 17 17 17 16 14 13 13 13 13 14 15 16 17 17 18 19 20 22 22 23 24 24 25 25 26 27 27 28 29 30 32 34 35 36 36 36 35 35 34 33 31 30 28 29 32 34 34 34 33 33 33 33 33
22 22 22 25 29 30 22 14 13 14 15 16 16 15 14 13 13 14 16 18 19 19 17 17 18 19 20 19 18 17 16 16 17 17 16 15 14 13 13 13 14 14 15 16 16 17 18 19 20 21 22 23 24 24 25 26 26 27 28 28 29 31 32 34 36 37 38 38 38 37 36 35 33 32 30 28 28 30 33 34 34 34 34 34 34
21 21 21 23 27 26 19 13 14 14 14 15 14 13 12 11 12 14 15 14 15 16 16 15 16 18 18 17 16 14 13 14 15 14 14 14 14 13 13 14 14 14 15 15 16 17 18 19 20 21 22 24 25 26 26 27 28 29 29 30 31 32 34 35 36 37 38 38 38 38 38 37 36 35 34 32 29 29 31 33 34 34 34 35 35
22 21 21 21 24 22 15 13 14 13 13 14 13 13 14 13 13 15 16 15 14 14 15 16 17 18 17 17 15 13 13 15 16 14 14 14 13 13 14 14 14 15 15 16 17 18 20 21 23 24 25 26 27 28 28 29 29 30 31 31 32 33 35 35 36 36 37 37 38 38 38 38 38 38 37 36 34 32 31 31 33 34 34 35 35
22 21 22 24 25 18 13 14 13 12 13 13 13 14 14 13 12 13 15 16 15 12 13 15 16 16 16 15 14 14 16 16 14 13 13 13 13 13 13 14 15 15 17 18 19 21 23 24 26 27 28 29 29 29 30 30 31 31 32 32 33 34 36 36 36 37 37 37 37 37 37 38 38 38 38 38 37 36 34 33 32 32 34 34 35
21 21 22 25 24 17 12 13 13 12 13 12 13 14 13 11 10 11 12 14 16 14 14 15 15 15 15 14 14 15 15 13 11 11 12 12 12 12 14 15 16 17 18 20 22 23 25 26 28 29 30 30 31 31 31 31 31 31 32 33 35 36 37 37 37 36 36 36 36 36 37 37 37 38 38 38 37 37 37 36 34 33 33 33 34
20 20 21 21 20 16 13 13 12 12 13 13 14 13 11 9 9 9 10 11 13 14 15 15 15 15 15 14 13 13 12 10 10 10 11 12 12 14 15 16 17 19 20 21 23 25 27 28 30 31 31 31 32 32 32 32 32 32 33 35 36 36 36 36 36 36 36 36 36 37 37 37 37 37 37 37 37 36 36 36 36 35 34 33 33
21 21 22 21 17 14 13 12 12 12 13 15 15 11 8 8 8 9 9 8 9 10 12 13 13 13 12 11 11 10 9 9 10 11 13 14 14 15 16 18 19 20 22 23 25 27 28 30 31 31 32 32 32 32 33 33 33 34 35 35 36 36 36 35 36 36 37 37 37 38 38 38 38 38 38 37 37 37 36 36 36 35 35 34 34
23 22 22 22 18 14 12 12 12 13 15 16 15 11 8 8 9 10 9 9 8 9 9 10 9 9 9 9 9 9 9 10 12 13 15 15 15 17 18 19 21 22 24 26 27 28 29 30 31 32 32 33 33 34 35 35 35 36 35 35 35 35 35 36 36 37 37 37 38 39 40 39 39 39 39 38 38 38 38 37 37 36 35 34 35
24 23 22 22 21 15 13 12 13 14 15 15 14 13 12 10 10 10 9 9 9 9 8 8 8 8 8 8 9 10 11 13 14 15 16 17 18 19 20 22 23 25 26 27 28 28 29 30 31 33 34 35 35 36 36 36 37 36 36 35 35 35 36 37 37 37 37 39 40 40 40 40 40 40 40 40 40 40 39 38 37 37 36 36 35
23 23 22 22 19 15 14 13 14 15 15 15 14 15 14 12 10 10 9 9 9 9 8 8 8 8 8 10 11 13 14 15 16 16 17 19 20 21 22 24 25 26 26 27 27 28 30 31 33 34 35 36 36 36 36 37 36 36 36 35 36 36 37 38 37 38 39 40 41 41 41 41 41 41 41 41 41 40 40 40 39 38 37 36 36
22 22 20 19 17 15 14 14 14 15 15 14 14 15 14 12 11 10 10 10 9 9 9 8 9 10 11 12 13 15 16 17 18 18 19 19 21 22 23 24 25 26 27 27 29 30 32 33 34 34 35 35 36 36 36 36 36 36 36 36 37 38 38 38 38 39 40 41 42 42 42 42 42 41 41 41 41 41 41 41 41 40 39 38 37
20 20 20 19 17 15 15 14 14 15 14 14 15 15 14 13 11 10 10 10 10 9 10 10 11 12 14 15 15 16 17 17 17 18 18 19 20 22 23 24 25 27 28 29 30 31 32 33 34 34 35 35 35 35 36 36 36 36 36 37 38 38 38 38 38 40 42 43 44 44 43 43 42 43 43 43 43 43 43 43 43 43 43 42 40
19 20 20 19 17 16 15 14 15 14 13 15 17 16 14 13 12 11 11 11 11 12 12 13 14 14 15 15 16 16 16 16 17 17 19 20 22 23 25 26 27 28 29 30 31 32 33 34 34 35 35 35 35 35 35 36 36 36 37 38 39 38 38 38 40 42 44 45 45 44 44 44 44 45 45 45 45 45 45 45 45 45 45 45 45
19 20 20 19 17 16 15 14 14 14 15 17 18 16 15 14 13 12 12 12 13 14 14 14 15 15 15 14 15 15 15 16 17 19 21 23 25 26 27 27 28 29 29 30 31 32 33 34 35 35 35 35 35 35 35 36 36 37 38 39 39 38 39 40 42 44 45 45 45 44 45 45 45 46 46 46 46 46 46 46 47 47 47 47 47
19 20 20 19 17 16 15 14 14 14 16 18 17 17 16 15 14 13 13 13 14 14 14 15 14 14 14 14 15 16 17 18 20 22 24 25 26 27 27 28 28 29 29 30 31 33 34 35 35 35 34 34 35 35 36 36 37 38 39 39 39 39 40 42 45 46 46 46 46 46 46 46 46 47 47 47 47 48 48 48 48 49 49 49 48
18 18 18 18 16 15 15 14 13 14 14 15 16 17 16 15 14 14 14 14 15 15 14 14 13 13 14 16 17 18 20 21 22 24 25 26 27 27 28 28 29 29 30 31 32 34 35 35 34 34 34 35 35 36 36 37 38 38 38 38 38 40 42 44 45 45 46 46 47 47 47 47 47 47 48 48 49 49 50 50 51 51 51 51 51
16 17 18 17 15 15 15 14 14 15 14 14 16 18 17 16 15 14 14 15 15 14 13 13 14 15 17 18 20 21 22 23 24 25 26 27 28 28 29 29 30 30 31 32 33 34 34 34 34 34 34 35 36 36 36 37 38 37 36 37 39 42 43 44 45 45 46 46 46 46 47 47 48 48 49 50 50 51 51 51 51 52 52 52 52
17 19 19 18 16 15 15 16 16 16 15 16 17 19 18 16 15 14 14 15 14 13 14 14 15 17 19 20 21 22 23 23 24 26 27 28 29 29 29 30 30 31 32 33 33 33 34 34 33 33 34 35 35 36 36 37 35 34 36 39 41 43 43 44 45 45 45 45 46 47 47 48 49 49 50 51 51 51 51 52 52 52 53 53 54
18 20 21 19 17 16 16 17 17 17 16 16 17 18 17 15 14 14 15 14 14 14 15 16 17 18 20 21 21 22 23 24 25 26 28 29 29 30 30 31 31 32 32 33 33 33 33 33 32 32 34 34 35 35 34 33 33 35 39 41 42 43 44 44 45 45 45 45 46 48 49 49 50 50 50 51 51 52 52 53 53 53 54 54 54
17 19 21 21 19 17 18 19 18 18 17 16 17 18 16 15 15 16 15 15 15 17 17 17 18 19 20 21 22 23 24 25 26 27 29 30 30 31 31 31 32 32 32 32 32 32 32 31 31 32 33 34 34 33 32 32 35 39 41 42 42 43 44 44 44 44 45 46 48 49 49 50 50 50 50 51 52 53 53 53 54 54 53 53 53
18 19 20 21 20 20 20 21 21 20 18 18 19 17 15 16 16 16 16 17 17 18 18 18 19 20 21 23 24 25 25 26 27 28 30 31 31 31 32 32 32 32 32 32 32 32 31 31 31 33 34 35 35 34 34 36 39 41 41 41 42 43 43 43 44 45 46 47 48 49 49 50 50 51 51 52 53 53 53 52 52 51 51 51 51
20 20 21 22 22 22 22 23 23 22 21 20 20 18 16 17 17 17 17 17 17 18 19 19 20 21 23 25 26 27 27 28 29 30 31 32 32 32 32 33 33 32 32 32 31 31 31 31 33 34 35 36 35 36 37 39 40 40 40 41 42 42 43 44 45 47 48 48 48 49 49 50 51 52 52 52 52 51 50 50 49 49 49 49 50
21 21 22 23 23 23 24 24 25 24 22 21 21 19 18 18 18 18 18 18 18 19 21 22 22 24 26 27 28 29 29 30 31 32 32 33 33 33 33 33 33 32 32 31 30 30 31 32 34 34 35 35 35 36 38 39 39 39 40 41 41 42 44 45 46 47 48 48 48 49 49 50 51 52 51 51 49 48 47 47 48 48 48 49 50
21 22 22 23 24 24 25 25 26 25 23 22 21 20 20 20 20 20 20 19 19 21 23 24 25 26 27 29 30 30 31 31 32 33 33 33 33 33 34 33 32 32 31 30 29 30 31 32 33 33 33 34 35 36 37 37 38 39 40 41 42 44 45 46 46 47 47 48 48 49 50 50 50 50 49 49 48 47 47 47 47 48 48 49 50
22 23 24 25 25 25 26 26 26 25 24 24 23 23 23 22 23 23 22 21 21 23 25 26 26 27 29 30 31 31 32 33 33 34 33 33 33 34 34 33 32 30 29 29 30 31 31 31 31 32 33 33 34 35 36 37 38 39 40 42 43 44 45 45 46 46 47 48 49 49 50 49 48 47 47 47 46 47 47 47 48 48 49 50 52
23 24 25 27 27 26 26 26 26 25 25 24 24 24 24 24 25 25 24 24 24 25 27 28 28 29 31 31 31 33 33 33 34 34 34 33 33 34 33 32 31 29 29 30 30 30 30 30 31 31 32 33 33 34 35 37 38 39 41 42 43 44 45 45 45 46 47 48 49 49 48 47 46 45 45 45 45 46 46 47 48 50 51 52 53
23 25 26 28 28 28 27 27 26 26 26 25 24 25 25 25 27 27 27 27 27 28 30 30 30 31 32 32 32 33 34 34 34 34 34 33 33 34 33 31 30 29 29 29 29 29 29 30 30 30 31 32 33 34 36 37 38 40 41 42 43 44 44 45 45 46 47 47 47 46 45 45 44 43 43 44 44 45 46 47 49 50 51 52 53
23 25 27 28 29 29 29 29 28 28 28 27 26 26 26 27 29 29 28 29 29 30 32 32 32 32 32 32 33 34 34 34 34 35 34 33 33 33 32 30 29 29 29 28 28 29 29 29 29 30 30 31 33 34 36 37 39 40 41 42 43 44 44 45 45 46 46 45 44 44 43 43 42 42 42 43 44 45 46 48 49 50 50 50 51
24 25 26 27 28 29 30 30 31 31 30 29 28 28 28 30 31 31 31 31 32 33 34 33 33 33 32 33 34 35 35 35 35 34 34 33 33 32 30 29 29 28 28 28 28 28 28 28 29 29 30 32 33 35 36 38 39 40 41 42 43 43 44 45 45 45 44 43 42 41 41 41 41 42 42 43 44 45 46 47 48 48 49 50 52
23 25 27 27 27 28 30 31 32 32 31 31 31 30 31 32 33 33 33 33 34 34 34 33 33 32 32 33 35 35 35 35 34 34 34 33 32 30 29 28 28 28 27 27 27 27 27 28 28 29 30 32 34 35 37 38 39 40 41 42 42 43 44 44 44 43 42 41 40 40 40 41 41 42 42 43 44 45 46 46 46 48 49 51 52
23 25 27 28 29 30 31 32 32 32 32 32 32 33 34 35 35 35 35 34 34 33 33 32 32 32 33 34 36 36 35 35 34 34 33 32 31 29 28 28 28 27 27 27 27 27 27 28 28 29 31 33 34 36 37 38 39 40 41 41 41 43 43 43 42 41 40 39 39 40 40 40 41 41 42 43 44 45 45 45 46 48 49 50 51
24 26 28 30 31 32 32 33 33 33 32 32 33 34 34 35 35 34 34 33 32 31 31 32 32 33 34 35 36 36 35 35 34 33 32 31 30 28 28 27 28 27 27 27 27 27 27 28 29 30 31 33 35 36 37 38 39 40 40 40 41 42 42 41 39 38 38 38 39 39 40 40 40 41 42 43 43 44 45 46 47 47 48 49 50
25 27 29 31 33 33 33 34 33 33 32 31 32 33 33 33 33 32 32 31 31 31 32 32 33 34 34 35 36 36 35 34 33 32 31 31 30 29 28 28 28 27 27 26 26 27 27 28 29 30 32 34 35 36 37 38 38 39 39 40 41 41 40 38 37 37 37 38 38 39 39 39 40 41 42 42 43 45 46 46 46 47 47 48 50
29 29 30 32 33 34 34 34 33 33 32 32 33 33 33 33 32 32 32 32 32 33 33 33 33 34 34 35 37 37 35 33 32 31 31 30 30 29 28 28 28 27 27 26 26 26 27 28 29 31 32 34 35 36 37 37 38 38 39 40 40 39 37 36 36 36 37 37 37 37 38 38 39 40 41 42 44 45 46 47 47 47 47 48 50
31 31 31 32 33 34 34 33 33 33 33 34 34 34 34 33 33 33 33 33 34 34 33 33 33 34 35 36 37 35 33 32 31 31 31 30 29 28 28 28 28 27 26 26 26 27 27 28 29 31 32 34 35 36 36 37 37 38 38 39 38 36 35 34 35 36 36 37 37 37 37 38 39 39 41 42 44 45 46 47 47 47 48 48 49
30 31 32 33 33 33 33 33 33 34 34 35 35 35 34 34 33 33 33 33 34 34 32 32 33 34 35 36 35 33 32 31 31 31 31 30 29 28 28 28 28 27 26 26 26 27 27 28 30 31 32 33 34 35 35 36 36 37 37 36 35 33 33 33 34 35 36 36 36 37 37 37 37 39 40 42 43 45 46 47 47 47 48 48 48
31 32 33 33 34 34 34 34 34 35 35 35 36 35 35 34 34 33 33 33 34 33 32 33 35 34 34 34 33 32 32 31 31 31 31 30 29 28 28 28 28 27 27 26 27 27 28 28 29 31 32 33 34 34 34 34 35 35 35 34 32 31 32 33 34 35 35 36 36 36 35 36 36 38 40 41 42 44 45 46 47 47 47 47 47
31 31 31 32 34 34 35 35 35 35 36 36 36 36 35 35 34 33 32 33 33 33 33 34 34 32 32 32 33 32 32 31 31 31 31 30 29 28 28 28 28 27 27 27 27 27 28 28 29 30 31 32 33 33 33 33 34 34 33 32 31 30 31 32 33 34 35 35 35 35 34 35 36 37 39 40 41 43 45 46 47 47 46 46 46
30 31 32 33 34 34 35 35 35 35 36 35 35 35 35 34 34 32 32 32 33 33 33 33 33 33 34 34 34 33 32 31 31 32 31 30 29 28 28 29 28 28 27 27 27 27 28 28 29 30 31 32 32 31 32 33 33 33 31 30 29 30 31 32 33 34 35 35 34 34 34 34 35 37 38 40 41 42 44 46 46 47 46 46 46
29 30 32 32 33 34 34 34 34 34 34 34 34 34 34 34 34 33 33 34 34 34 34 34 34 35 36 36 35 33 31 31 32 32 32 31 30 29 29 29 29 28 28 27 27 27 28 28 29 30 30 30 30 30 31 32 32 31 29 29 29 29 30 31 32 33 34 34 34 34 34 35 36 37 37 39 40 41 43 44 46 47 46 46 46
29 31 31 31 32 33 33 33 32 32 32 32 32 33 34 34 34 34 35 36 36 35 34 34 35 36 37 36 35 33 32 32 33 33 32 31 30 30 30 30 29 28 28 27 27 28 27 27 28 29 29 29 29 29 30 30 30 29 28 27 28 28 29 30 31 32 33 33 34 34 35 35 36 36 37 38 39 40 42 43 44 46 46 46 46
29 31 31 32 33 33 32 32 32 32 32 31 32 33 34 34 35 36 36 37 37 36 35 35 36 37 37 36 35 33 33 34 34 34 33 32 31 31 31 30 29 28 27 27 28 28 27 27 27 28 28 28 28 28 29 29 28 27 27 27 27 28 29 30 30 31 32 33 33 33 34 35 36 36 37 38 38 39 40 41 43 44 46 47 47
29 30 31 32 33 33 32 32 32 32 32 32 32 33 33 34 35 36 37 37 37 36 35 35 37 38 37 36 35 34 34 35 35 35 35 33 32 32 32 30 28 27 28 28 27 27 26 26 27 27 27 27 27 27 28 28 27 26 26 26 27 27 28 29 29 30 31 32 32 33 34 34 35 35 35 36 37 38 39 40 41 43 44 46 47
30 31 32 33 33 33 33 33 33 33 32 33 34 34 33 34 35 36 37 37 37 36 35 36 38 39 38 37 36 36 36 36 37 37 36 34 34 33 32 29 27 27 28 28 27 26 25 26 26 26 25 26 26 26 26 26 25 25 25 25 26 26 27 27 28 29 30 31 31 32 33 33 33 33 34 35 36 37 38 39 40 41 42 45 46
30 31 31 32 32 33 33 33 33 33 33 34 35 34 34 34 34 35 36 36 36 36 37 38 40 40 40 38 37 37 38 38 38 38 37 35 34 33 30 28 27 28 28 27 25 25 25 25 25 24 24 24 25 25 24 24 23 23 23 24 25 26 26 27 27 28 29 30 31 32 32 32 32 32 33 34 35 36 38 39 40 41 41 43 45
30 30 30 31 31 32 32 32 32 33 33 34 34 34 34 34 34 34 35 35 36 37 38 39 41 41 40 39 39 40 40 40 40 41 39 35 32 31 29 27 28 29 28 26 24 24 24 24 23 23 23 23 23 23 23 22 21 21 22 23 24 25 26 26 27 28 29 29 30 31 31 31 32 32 33 34 35 36 37 39 40 41 41 42 43
Wind_Direction
254 249 242 237 233 230 238 245 241 241 251 261 268 273 278 284 285 280 273 270 272 272 270 269 271 273 274 273 272 272 271 264 253 241 235 240 259 278 278 283 291 295 301 304 306 308 311 314 318 320 321 321 321 320 319 318 318 318 317 317 316 316 316 316 316 316 316 313 313 312 312 313 312 310 308 307 306 304 303 302 301 301 301 300 299
249 245 241 238 235 232 237 247 249 250 257 264 270 273 277 281 283 279 267 266 272 274 272 270 270 273 272 269 272 270 263 256 244 231 235 252 270 282 287 292 296 300 304 306 307 308 310 314 316 318 319 319 319 318 318 317 317 317 316 316 317 317 317 317 317 318 316 316 316 316 316 315 314 312 310 309 307 305 303 302 301 301 300 298 296
250 246 244 243 239 237 243 252 258 258 261 267 271 275 277 277 276 270 264 266 270 273 273 272 271 271 267 266 267 261 252 251 246 242 254 268 277 289 296 299 302 305 305 305 305 307 310 314 316 318 318 318 318 318 317 317 317 317 318 318 318 318 318 317 318 318 317 317 317 316 315 314 313 311 310 309 306 304 303 301 301 300 298 296 294
251 251 249 244 241 246 253 255 257 259 262 267 272 277 279 275 268 262 262 266 269 271 272 272 269 264 262 264 260 251 249 251 252 262 270 273 282 294 300 303 305 306 306 305 307 310 314 316 317 318 317 317 317 317 317 317 318 318 319 319 318 318 317 317 317 317 316 316 316 315 314 313 312 311 309 308 307 306 304 302 301 299 297 295 294
249 247 246 244 246 254 258 255 256 261 264 269 275 279 280 274 264 261 266 268 267 268 271 271 266 260 259 259 253 249 250 249 257 272 273 271 281 292 298 302 303 303 303 305 310 314 315 316 316 316 316 316 316 316 317 317 318 319 319 319 318 317 317 316 316 316 316 316 316 315 314 313 312 311 309 307 307 307 305 304 302 300 297 295 294
238 233 239 247 252 254 252 251 258 261 265 270 276 278 278 274 262 262 270 270 264 261 266 267 263 261 258 251 247 246 246 251 264 273 271 272 280 288 294 297 298 300 303 307 312 313 313 313 313 314 314 314 315 316 316 316 316 316 317 316 316 316 316 317 317 317 317 316 315 314 313 313 312 311 310 308 307 306 305 304 303 301 299 297 294
232 233 242 252 254 250 245 249 256 260 264 267 272 272 266 264 259 257 264 270 266 260 258 259 260 259 253 245 242 238 243 260 274 276 274 277 282 287 292 294 296 300 305 309 310 309 310 311 312 312 312 312 313 313 313 314 314 314 315 315 315 316 317 317 317 317 316 315 315 314 313 312 310 309 309 308 308 306 305 304 303 301 299 298 296
245 249 251 251 251 249 243 246 254 257 263 265 264 259 253 253 254 251 255 262 264 259 254 252 252 251 248 244 241 240 254 272 280 279 278 281 285 290 293 296 301 305 307 309 309 310 311 312 312 311 310 310 310 311 312 312 313 313 313 314 315 316 316 316 316 316 315 315 315 315 314 313 311 309 308 307 307 306 306 305 303 301 299 298 296
256 257 255 251 247 243 239 245 253 258 262 262 253 246 244 243 243 246 251 254 256 256 251 247 246 244 243 243 246 256 267 274 278 279 281 286 290 294 297 301 306 308 309 311 312 312 312 311 310 309 308 308 309 310 311 311 312 312 312 313 314 315 315 315 315 316 316 316 316 316 315 314 313 312 310 309 307 307 307 307 305 303 301 299 297
257 255 253 248 239 229 232 246 255 264 265 256 239 231 229 230 238 248 251 250 249 248 245 243 244 242 242 249 260 267 271 273 277 279 282 287 292 296 301 305 307 309 310 311 311 310 309 308 308 307 308 308 309 310 310 310 311 311 311 312 313 313 314 315 316 316 316 316 316 316 315 315 314 314 312 311 310 308 308 307 306 305 303 301 298
250 247 247 245 241 235 237 248 258 264 258 241 224 218 222 232 245 247 244 243 245 245 243 244 246 246 249 256 261 263 267 272 274 277 282 288 294 300 303 305 306 307 308 308 307 307 306 306 307 307 307 308 308 308 309 310 310 310 310 311 312 313 314 315 315 315 315 315 315 315 315 314 314 313 312 311 310 309 308 307 306 305 303 301 299
244 246 246 245 256 256 240 243 254 253 245 233 222 220 235 251 249 240 234 232 234 238 239 240 242 246 250 253 256 262 271 277 281 286 292 295 299 301 302 304 305 305 306 305 305 305 305 306 306 306 307 307 307 308 308 309 309 310 311 312 313 313 313 314 314 314 314 315 316 315 315 315 314 313 312 311 310 308 307 305 304 303 302 301 300
246 246 240 244 267 270 240 239 251 250 245 236 227 232 255 258 245 235 228 221 219 226 229 230 231 236 244 250 261 274 280 285 288 291 293 295 298 299 300 302 302 302 303 303 304 304 304 305 305 306 306 306 307 308 308 309 310 311 312 313 313 312 312 312 313 314 314 315 316 315 315 315 314 313 312 311 310 308 306 304 303 301 301 300 299
245 242 237 249 272 271 244 242 251 252 252 244 236 245 255 251 236 226 221 218 218 225 226 224 227 234 248 260 269 275 276 279 282 285 289 293 295 297 298 299 299 299 300 302 303 304 304 305 305 305 305 306 307 308 309 310 311 312 312 312 312 312 312 312 313 314 314 315 315 315 315 314 313 313 311 310 308 306 304 302 300 299 298 298 297
245 243 240 253 266 260 248 247 251 254 254 249 246 250 250 243 231 225 225 225 223 225 227 229 238 248 259 266 270 274 277 280 284 287 290 292 294 295 296 296 297 298 300 302 303 304 304 304 304 304 305 306 307 308 309 310 311 312 312 312 312 312 312 313 314 314 314 314 315 315 314 313 312 311 310 308 307 305 303 301 299 297 295 295 295
245 245 245 251 254 250 248 246 247 251 250 249 247 245 242 235 229 229 232 234 233 234 236 242 251 258 264 268 271 276 280 284 288 289 290 292 294 295 295 297 298 300 302 303 303 303 303 303 303 304 305 306 307 308 309 310 311 311 311 312 312 312 313 313 313 314 314 314 314 314 313 312 311 310 309 308 306 304 303 301 299 297 295 292 291
241 243 244 247 247 245 245 243 244 248 247 244 238 234 233 231 230 232 238 243 248 251 253 255 258 263 268 273 277 280 283 285 288 291 293 295 296 297 298 300 301 302 303 303 303 302 302 302 303 305 306 307 308 309 310 310 311 311 311 312 312 312 312 313 313 313 314 314 313 313 312 312 312 311 310 308 307 305 304 302 301 299 297 295 292
239 239 240 242 244 245 246 244 245 248 243 233 229 228 230 230 231 236 243 250 256 259 260 262 265 269 274 278 281 284 287 290 294 297 299 300 300 301 302 303 303 303 303 303 303 302 303 304 305 306 308 309 309 310 310 310 310 310 311 311 312 312 312 312 313 313 314 314 313 313 313 312 312 311 310 308 307 306 305 304 302 301 299 298 295
237 236 238 239 241 244 245 244 249 249 237 226 225 227 227 230 233 239 247 253 257 260 262 266 269 273 278 281 283 287 291 296 300 302 302 302 302 302 303 304 304 304 303 304 303 304 305 305 306 307 308 309 310 310 310 310 310 310 311 312 312 312 311 312 313 313 313 313 313 313 312 312 311 310 309 308 306 306 305 303 302 301 300 298 297
235 235 237 237 238 240 238 240 246 242 228 222 223 225 227 231 235 240 248 252 256 260 264 268 272 277 282 286 288 292 296 299 302 302 302 302 302 303 304 304 304 305 305 305 305 305 305 305 306 307 308 309 309 309 310 310 310 311 312 312 312 311 311 312 312 312 312 312 313 313 312 311 310 309 308 307 306 306 305 304 303 302 301 299 298
237 237 238 237 234 235 234 234 235 229 221 220 223 225 228 231 235 240 246 252 257 263 267 272 277 281 285 288 292 295 298 301 302 303 302 302 303 304 305 305 306 306 306 305 304 304 304 305 306 307 308 308 308 309 310 310 311 312 311 311 311 311 310 310 311 312 312 312 312 311 310 310 309 308 308 307 307 307 306 305 304 303 303 301 299
246 243 241 239 233 232 233 228 226 225 225 225 223 224 227 230 233 239 246 253 260 265 271 275 279 283 286 289 293 296 299 301 302 303 303 303 304 304 305 305 306 306 305 304 304 303 304 305 306 307 307 308 308 309 310 310 311 310 310 310 310 310 310 310 311 312 312 311 311 310 310 309 309 309 309 308 308 307 307 306 305 304 303 301 300
256 249 245 242 234 232 232 225 223 225 227 225 222 223 227 228 231 240 248 256 263 268 271 274 278 282 285 288 292 294 297 299 301 302 303 303 304 304 304 304 304 304 304 303 303 304 304 305 306 307 308 309 309 309 309 309 309 309 309 310 311 311 311 311 312 312 311 311 310 310 310 310 310 310 310 309 308 307 306 305 305 304 303 301 300
255 252 250 247 239 236 234 227 224 224 223 221 220 223 226 226 232 242 249 256 263 266 269 272 275 278 282 285 289 292 295 298 300 302 302 303 303 303 303 303 303 303 303 303 303 304 305 307 308 310 311 311 310 309 309 309 309 309 311 311 312 312 312 312 312 311 311 311 311 311 311 311 311 310 310 309 308 308 307 307 306 305 304 303 302
249 249 250 249 243 238 236 232 228 226 222 219 220 224 225 226 233 243 250 256 260 263 267 270 273 277 281 285 288 291 295 297 299 301 302 302 302 302 302 302 302 303 303 303 303 304 307 309 311 312 312 312 311 310 309 310 311 311 312 312 312 312 311 311 311 311 312 312 312 312 312 312 311 311 311 310 310 310 309 308 308 307 306 305 304
243 244 246 247 241 237 237 235 233 229 224 220 222 225 225 228 236 244 251 257 260 263 266 269 274 279 282 285 288 291 294 297 300 301 301 302 302 303 302 302 302 303 303 304 304 306 309 311 312 313 312 311 310 310 309 311 312 313 313 313 312 311 311 311 312 312 313 313 313 313 313 312 312 312 312 312 312 311 311 310 309 308 308 307 306
239 239 241 242 240 237 237 237 236 232 227 223 224 225 225 231 239 246 252 257 260 264 266 268 274 279 282 285 289 292 296 299 301 302 302 303 303 303 302 302 303 303 304 305 306 308 311 312 312 312 311 310 309 308 309 311 313 314 313 312 311 312 312 313 314 314 314 314 314 314 314 314 314 314 313 313 313 313 312 311 311 310 309 309 308
237 236 238 240 239 238 238 238 238 234 229 227 227 227 229 235 242 247 253 258 261 266 269 270 274 278 282 286 289 293 297 299 301 302 302 303 303 302 302 302 303 304 305 306 308 310 312 313 312 312 311 309 308 308 310 312 314 313 312 312 313 314 315 315 315 315 315 315 315 315 315 315 315 315 315 315 314 314 314 314 313 313 312 311 310
235 235 238 240 239 240 240 240 240 237 234 231 229 229 232 237 243 248 253 258 261 266 270 273 276 280 282 285 288 292 296 298 300 301 301 302 302 302 302 302 303 305 306 308 309 311 312 312 312 312 311 310 310 311 312 313 313 313 313 314 315 316 315 315 315 315 315 316 316 317 317 317 317 317 317 318 318 318 317 316 316 315 314 313 313
234 234 236 238 238 240 241 242 243 241 238 235 232 232 235 239 244 249 254 259 263 266 270 274 278 281 282 285 288 290 294 297 299 300 300 301 301 301 301 302 304 306 307 308 309 311 312 312 312 312 312 312 312 313 313 313 314 314 315 316 316 315 315 315 315 316 316 317 318 318 319 319 320 320 320 321 320 320 320 319 318 318 317 317 316
237 236 236 236 236 238 241 244 246 245 243 240 237 237 239 242 246 251 255 260 264 267 270 273 278 281 283 284 286 288 292 296 298 298 299 300 300 300 300 301 304 306 307 308 309 311 311 311 312 312 312 313 313 313 313 314 315 316 317 316 315 315 315 316 317 318 319 320 320 321 321 321 322 322 322 322 322 322 322 322 322 321 321 320 318
244 240 238 236 235 236 238 242 244 245 246 245 243 243 244 246 249 252 255 259 263 267 269 273 277 280 282 283 284 287 291 294 296 297 298 299 298 298 299 301 304 305 306 308 309 310 310 310 312 312 312 312 312 313 315 316 317 317 316 316 316 316 317 318 319 320 321 322 322 323 323 323 324 324 324 324 324 324 324 324 325 324 323 321 320
244 243 241 239 238 237 238 239 241 243 246 246 246 246 247 249 251 253 257 261 264 267 269 272 276 278 280 281 283 286 289 292 295 296 297 297 297 297 298 300 302 304 305 307 308 308 309 311 311 311 311 312 314 315 317 317 317 317 316 316 317 317 319 320 321 322 323 323 324 325 325 325 325 326 326 326 326 326 327 327 326 325 324 323 323
243 242 242 242 243 243 243 242 243 245 246 246 246 247 248 250 252 254 257 260 262 264 267 271 274 276 277 279 282 285 289 292 294 295 295 295 295 296 298 300 301 303 304 305 306 308 309 310 310 310 312 314 316 317 317 317 317 317 317 317 318 319 320 321 322 324 325 325 326 326 326 327 327 327 328 328 329 330 330 328 327 327 327 328 328
246 243 242 242 243 243 244 244 245 246 246 246 246 246 247 248 250 252 255 257 259 262 266 270 272 273 275 278 282 285 288 290 292 292 293 293 294 296 298 299 301 302 303 304 306 307 308 309 309 311 313 316 317 317 317 317 317 317 318 319 320 321 322 323 324 325 326 327 327 328 328 328 329 329 330 331 332 332 330 329 331 332 332 332 331
249 246 245 243 241 240 241 242 243 245 245 245 246 247 248 249 251 253 255 257 260 263 266 268 269 272 275 279 281 284 287 289 290 290 291 292 294 295 297 299 300 300 302 304 305 307 308 308 309 312 315 317 318 318 317 317 317 318 319 320 321 322 323 325 326 327 328 329 329 330 330 330 331 331 333 334 334 332 332 334 336 336 335 335 335
250 249 248 246 243 242 242 243 243 243 244 244 245 247 249 251 253 255 257 259 261 263 264 266 269 272 275 278 281 283 285 287 288 289 291 293 294 295 296 297 298 299 301 303 305 306 307 307 310 313 316 317 318 317 317 318 318 319 321 322 323 324 325 327 328 329 330 331 331 331 331 332 333 335 336 335 334 335 338 340 340 338 337 337 339
249 250 248 246 245 245 245 244 244 244 243 243 244 245 247 250 252 254 256 258 260 261 262 265 269 272 274 277 280 282 284 286 287 290 292 293 294 293 294 295 297 298 300 302 304 305 305 307 311 314 316 317 317 317 317 318 319 321 322 323 325 326 327 328 330 331 332 332 333 333 333 334 337 338 337 336 338 341 342 341 341 340 339 340 343
246 247 246 244 244 244 244 244 245 245 243 242 243 244 245 247 249 252 254 256 257 259 261 264 267 270 274 277 279 281 283 285 287 290 292 293 293 292 292 294 296 297 299 300 302 303 305 308 311 314 316 316 316 317 318 319 321 322 324 325 326 327 329 330 332 333 334 334 334 334 336 338 339 338 337 340 343 344 343 342 342 342 342 344 347
243 244 243 243 242 243 244 245 245 245 243 242 243 244 245 247 249 251 252 254 256 257 260 263 267 270 273 275 277 279 282 285 288 290 292 293 292 291 291 293 295 296 297 299 300 302 304 308 312 314 315 315 316 317 319 320 322 323 325 326 327 328 330 332 334 335 336 336 336 338 340 340 338 338 341 345 346 345 344 344 344 344 346 348 350
242 241 241 242 242 243 244 244 244 244 243 243 244 245 246 247 249 250 252 253 255 257 260 264 266 269 272 274 276 278 281 285 288 291 293 293 292 291 291 293 294 294 295 297 299 301 305 309 311 313 314 315 317 318 320 322 323 324 326 327 328 330 332 334 336 338 338 338 339 341 341 339 339 342 346 348 348 347 346 346 346 347 349 351 352
241 240 240 241 243 244 244 244 244 244 244 244 244 245 246 247 248 249 250 252 255 257 260 263 266 269 272 273 274 277 281 284 288 291 293 294 292 291 291 292 293 293 294 296 298 301 305 308 310 311 313 316 317 319 320 322 323 325 326 327 329 331 334 336 338 339 340 341 342 342 340 339 341 345 348 349 348 348 349 349 350 351 352 354 355
239 238 239 240 241 242 243 243 244 245 245 244 244 244 245 245 246 246 248 251 254 257 260 263 267 269 270 271 272 276 279 284 287 291 293 294 292 291 291 291 292 292 293 295 297 301 304 306 308 311 314 316 318 319 320 322 324 325 327 328 331 333 336 338 340 341 342 343 343 341 340 341 344 347 349 349 349 350 352 353 353 353 354 355 357
235 236 236 237 239 240 241 243 244 245 246 246 245 245 245 246 245 245 247 251 254 257 260 263 266 267 268 269 271 274 278 283 287 290 292 293 292 290 290 290 290 290 291 294 297 300 303 305 308 311 314 316 317 318 320 322 325 326 328 330 333 335 337 340 341 342 344 344 342 342 342 344 346 348 349 348 349 351 353 355 356 356 356 356 359
235 235 236 237 238 240 241 243 245 246 247 248 248 248 248 248 246 246 248 251 254 256 259 262 264 266 267 268 270 273 278 282 285 288 292 293 291 289 288 288 289 289 290 293 297 299 301 303 307 311 313 315 316 318 321 323 325 327 330 332 334 336 339 341 343 344 345 344 343 344 345 346 347 348 347 347 349 351 353 355 357 358 357 358 0
236 236 236 237 239 240 241 242 244 246 248 249 249 250 250 249 247 247 248 250 253 255 257 260 263 265 266 268 270 272 276 280 283 287 290 291 289 287 286 286 286 287 290 294 296 298 299 303 308 311 312 314 317 319 322 324 326 329 331 334 336 338 340 342 344 345 345 344 345 347 348 348 348 347 346 347 349 351 353 356 358 359 360 360 2
235 235 236 238 239 240 240 241 243 245 247 248 249 249 249 249 248 247 248 250 251 253 257 260 262 264 266 267 269 271 275 279 282 286 289 289 287 285 284 283 284 287 291 294 295 296 298 303 307 310 311 314 317 320 323 325 328 330 333 335 338 340 342 343 345 346 346 346 348 349 349 349 349 347 347 348 350 351 353 355 357 360 2 3 4
235 235 235 235 236 237 237 239 241 243 245 247 248 248 248 248 248 248 249 250 251 253 257 260 262 264 266 267 268 271 275 278 281 284 287 287 284 282 281 281 283 286 290 292 294 295 298 302 306 308 310 314 318 321 324 327 330 332 335 337 340 342 343 345 346 346 346 347 350 351 351 351 349 348 348 350 351 352 353 355 357 0 3 5 6
235 234 234 234 235 236 237 238 241 243 245 246 247 247 247 247 248 249 250 251 252 254 257 260 262 264 265 266 268 271 275 277 279 283 286 284 281 279 279 280 282 286 289 291 292 293 297 301 305 307 311 315 318 322 325 328 332 334 337 339 341 342 344 345 346 346 346 349 352 353 353 351 349 349 350 352 353 354 354 356 358 0 3 7 8
236 235 234 234 234 236 238 239 241 243 245 246 247 247 247 247 248 249 251 252 253 255 258 260 262 263 265 266 268 272 274 276 278 282 283 280 277 276 277 278 281 285 287 288 289 292 296 301 303 306 311 315 319 323 327 330 333 336 339 340 342 343 343 345 346 346 347 350 353 354 353 352 351 352 354 355 356 358 358 358 360 1 3 7 9
236 236 236 236 236 237 239 240 241 242 244 245 247 247 247 247 248 250 252 254 255 257 258 259 261 263 264 266 269 272 273 275 278 280 278 274 272 273 275 278 282 283 283 284 286 291 295 298 302 306 310 315 319 324 328 331 334 337 339 341 342 343 344 345 346 346 347 350 354 354 353 353 353 355 357 358 359 1 1 2 3 3 4 7 9
Height
5819 5820 5820 5821 5824 5826 5828 5829 5830 5830 5831 5832 5834 5834 5835 5835 5834 5834 5834 5836 5837 5837 5838 5837 5837 5839 5840 5841 5841 5840 5842 5842 5842 5843 5844 5844 5844 5844 5844 5844 5843 5843 5843 5842 5842 5842 5842 5842 5841 5840 5839 5839 5838 5838 5837 5836 5835 5834 5833 5832 5831 5830 5829 5828 5827 5825 5823 5821 5819 5818 5816 5815 5812 5810 5809 5808 5806 5805 5803 5802 5801 5800 5799 5798 5796
5817 5819 5820 5821 5823 5824 5825 5827 5827 5827 5829 5830 5831 5832 5832 5832 5832 5831 5832 5834 5835 5835 5836 5836 5837 5838 5839 5839 5839 5839 5840 5842 5842 5843 5843 5843 5843 5843 5842 5842 5842 5841 5841 5841 5841 5841 5840 5840 5839 5838 5838 5837 5836 5836 5835 5834 5833 5832 5831 5830 5829 5828 5827 5825 5824 5823 5821 5819 5817 5815 5813 5812 5810 5807 5805 5804 5803 5801 5800 5798 5798 5797 5796 5794 5793
5815 5816 5817 5818 5820 5822 5823 5824 5824 5825 5826 5828 5828 5829 5829 5829 5829 5830 5830 5831 5833 5833 5834 5835 5836 5837 5837 5838 5839 5840 5841 5842 5842 5842 5842 5842 5841 5841 5841 5840 5840 5840 5840 5840 5839 5839 5838 5838 5837 5836 5836 5835 5834 5834 5833 5832 5831 5830 5828 5827 5826 5825 5824 5822 5822 5821 5819 5817 5816 5814 5811 5809 5807 5805 5802 5800 5799 5798 5796 5795 5794 5794 5792 5790 5789
5812 5812 5813 5815 5817 5819 5821 5821 5821 5822 5824 5825 5825 5826 5826 5826 5827 5827 5828 5829 5830 5831 5832 5833 5834 5835 5836 5837 5838 5839 5840 5840 5841 5841 5840 5840 5839 5839 5839 5839 5838 5838 5838 5838 5838 5837 5836 5835 5835 5834 5833 5833 5832 5832 5831 5830 5829 5827 5826 5825 5823 5822 5820 5819 5819 5818 5816 5815 5813 5811 5810 5808 5805 5803 5799 5797 5795 5793 5792 5791 5791 5789 5787 5786 5785
5810 5809 5810 5812 5815 5816 5818 5818 5819 5820 5821 5822 5823 5823 5823 5823 5824 5826 5827 5828 5828 5829 5829 5830 5831 5833 5835 5836 5837 5837 5838 5838 5839 5839 5839 5838 5838 5838 5838 5837 5837 5837 5837 5836 5835 5835 5834 5833 5833 5832 5831 5831 5830 5830 5829 5828 5827 5825 5824 5823 5821 5819 5817 5816 5815 5813 5812 5811 5809 5808 5806 5805 5803 5801 5798 5795 5792 5790 5788 5787 5786 5785 5783 5782 5781
5807 5807 5808 5810 5813 5814 5815 5816 5817 5818 5819 5820 5820 5821 5821 5822 5823 5824 5825 5826 5827 5827 5827 5828 5829 5832 5834 5835 5835 5835 5836 5837 5837 5838 5837 5837 5837 5837 5836 5836 5836 5835 5835 5834 5833 5833 5832 5832 5831 5831 5830 5829 5829 5828 5827 5826 5825 5823 5822 5821 5819 5817 5815 5813 5811 5809 5808 5806 5805 5804 5802 5801 5800 5799 5797 5794 5791 5788 5785 5783 5781 5780 5778 5777 5776
5805 5805 5807 5809 5811 5813 5814 5814 5815 5816 5817 5818 5819 5819 5819 5820 5822 5823 5824 5825 5825 5826 5826 5826 5828 5830 5832 5833 5833 5834 5834 5835 5836 5836 5836 5835 5835 5835 5834 5834 5834 5833 5833 5832 5831 5831 5831 5830 5830 5829 5828 5828 5827 5826 5825 5824 5822 5821 5820 5818 5816 5814 5812 5810 5808 5805 5804 5802 5800 5798 5797 5796 5795 5793 5792 5791 5789 5786 5783 5780 5778 5776 5774 5773 5771
5804 5805 5806 5808 5809 5811 5812 5812 5813 5815 5816 5816 5817 5817 5818 5820 5821 5822 5823 5823 5823 5824 5825 5825 5827 5828 5830 5831 5831 5831 5832 5833 5833 5834 5834 5833 5833 5832 5832 5832 5832 5831 5830 5830 5829 5829 5828 5828 5827 5827 5826 5825 5825 5824 5822 5821 5820 5818 5817 5815 5813 5811 5809 5807 5805 5803 5800 5798 5796 5794 5792 5790 5789 5788 5786 5785 5785 5783 5780 5778 5775 5772 5770 5769 5767
5802 5804 5805 5806 5808 5809 5810 5811 5812 5813 5814 5814 5815 5816 5817 5819 5819 5820 5820 5821 5821 5822 5824 5825 5826 5827 5828 5829 5829 5830 5830 5831 5831 5831 5831 5831 5830 5830 5830 5830 5829 5828 5828 5827 5827 5826 5826 5825 5825 5824 5823 5823 5822 5821 5820 5819 5817 5816 5814 5812 5810 5808 5806 5804 5802 5800 5797 5795 5793 5791 5788 5786 5784 5782 5781 5779 5778 5777 5776 5774 5771 5768 5765 5764 5763
5801 5802 5803 5804 5805 5807 5809 5810 5810 5811 5812 5812 5813 5815 5816 5817 5817 5818 5818 5818 5819 5821 5823 5824 5825 5825 5826 5827 5828 5828 5829 5829 5829 5829 5829 5829 5829 5828 5828 5827 5827 5826 5825 5825 5824 5824 5824 5823 5823 5822 5821 5820 5819 5818 5817 5816 5815 5813 5811 5809 5807 5805 5803 5801 5799 5796 5794 5792 5790 5787 5785 5783 5781 5779 5777 5775 5773 5772 5770 5769 5767 5765 5762 5760 5759
5799 5800 5801 5802 5803 5805 5806 5808 5809 5809 5810 5811 5812 5813 5814 5815 5816 5816 5816 5817 5818 5820 5821 5823 5823 5824 5825 5825 5826 5827 5827 5827 5827 5827 5827 5827 5827 5826 5826 5825 5825 5824 5824 5823 5823 5822 5822 5821 5820 5819 5818 5817 5816 5815 5814 5813 5811 5810 5808 5806 5804 5802 5799 5797 5795 5793 5791 5789 5786 5784 5782 5779 5777 5775 5773 5771 5770 5768 5766 5764 5763 5761 5759 5756 5754
5797 5799 5801 5802 5802 5803 5804 5806 5807 5808 5809 5810 5811 5812 5812 5813 5814 5815 5815 5816 5818 5819 5820 5821 5822 5823 5823 5824 5825 5825 5825 5825 5825 5825 5824 5824 5824 5824 5823 5823 5823 5822 5822 5821 5821 5820 5819 5818 5818 5817 5816 5814 5813 5812 5811 5809 5808 5806 5804 5802 5800 5798 5796 5794 5792 5790 5787 5785 5783 5780 5778 5776 5773 5771 5769 5767 5765 5764 5762 5760 5759 5757 5755 5752 5750
5796 5798 5800 5801 5801 5801 5802 5804 5805 5806 5807 5808 5809 5810 5811 5812 5812 5813 5814 5815 5817 5818 5819 5820 5821 5821 5822 5822 5822 5822 5822 5823 5823 5823 5822 5822 5822 5822 5821 5821 5821 5820 5820 5819 5819 5818 5817 5816 5815 5814 5813 5811 5810 5809 5807 5805 5804 5802 5800 5798 5796 5795 5793 5791 5788 5786 5784 5781 5779 5776 5774 5772 5769 5767 5765 5763 5761 5759 5757 5756 5754 5752 5750 5748 5746
5794 5796 5798 5799 5799 5800 5801 5802 5803 5804 5805 5806 5807 5809 5810 5811 5812 5812 5813 5814 5816 5817 5818 5819 5819 5820 5820 5821 5820 5821 5821 5821 5821 5821 5821 5821 5820 5820 5820 5819 5819 5818 5818 5817 5816 5815 5814 5813 5812 5811 5809 5808 5806 5805 5803 5801 5800 5798 5796 5795 5793 5791 5789 5787 5785 5782 5780 5778 5775 5773 5770 5768 5765 5763 5760 5758 5756 5754 5752 5751 5750 5748 5746 5744 5742
5791 5793 5795 5796 5797 5798 5799 5800 5801 5802 5802 5804 5805 5806 5808 5809 5810 5811 5812 5813 5815 5816 5816 5817 5818 5818 5819 5819 5819 5819 5819 5819 5819 5819 5819 5819 5818 5818 5818 5817 5817 5816 5815 5814 5813 5813 5812 5810 5809 5807 5806 5804 5803 5801 5799 5798 5796 5794 5793 5791 5789 5787 5785 5783 5780 5778 5776 5774 5771 5769 5766 5763 5761 5758 5756 5754 5751 5749 5747 5745 5744 5744 5742 5740 5738
5788 5789 5791 5793 5795 5796 5797 5798 5799 5800 5801 5802 5803 5804 5806 5808 5809 5810 5810 5812 5813 5814 5815 5815 5816 5817 5817 5818 5818 5817 5817 5817 5817 5817 5817 5817 5816 5816 5815 5815 5814 5813 5812 5811 5810 5810 5808 5807 5806 5804 5802 5801 5799 5797 5796 5794 5792 5791 5789 5787 5785 5783 5781 5779 5776 5774 5772 5770 5767 5764 5762 5759 5756 5754 5751 5749 5746 5744 5742 5740 5738 5737 5736 5735 5734
5785 5786 5789 5791 5793 5794 5795 5796 5797 5798 5799 5801 5802 5803 5804 5806 5807 5808 5809 5809 5811 5812 5813 5814 5814 5815 5815 5815 5815 5815 5815 5815 5815 5815 5814 5814 5814 5813 5813 5812 5811 5810 5809 5808 5807 5806 5805 5804 5802 5800 5799 5797 5795 5794 5792 5790 5789 5787 5785 5783 5781 5779 5777 5775 5772 5770 5768 5765 5763 5760 5757 5754 5751 5749 5746 5743 5741 5738 5736 5733 5731 5730 5728 5727 5727
5782 5784 5787 5789 5791 5792 5793 5794 5795 5796 5798 5799 5800 5801 5803 5804 5806 5806 5807 5808 5809 5810 5811 5812 5812 5813 5813 5813 5813 5813 5813 5812 5812 5812 5812 5812 5811 5811 5810 5809 5808 5807 5806 5805 5804 5803 5802 5800 5798 5796 5795 5793 5791 5790 5788 5787 5785 5783 5782 5780 5777 5775 5773 5771 5768 5766 5763 5760 5758 5755 5752 5749 5746 5744 5741 5738 5735 5732 5730 5727 5725 5722 5721 5719 5717
5781 5783 5785 5788 5789 5790 5791 5792 5793 5795 5796 5797 5798 5799 5801 5802 5804 5804 5805 5806 5807 5808 5809 5810 5810 5811 5811 5811 5811 5810 5810 5810 5810 5810 5810 5810 5809 5808 5807 5806 5805 5804 5803 5802 5801 5799 5798 5796 5794 5793 5791 5789 5788 5786 5785 5783 5782 5780 5778 5776 5773 5771 5769 5767 5764 5762 5759 5756 5753 5751 5747 5744 5742 5739 5736 5733 5730 5727 5724 5721 5719 5716 5714 5712 5710
5780 5782 5784 5786 5787 5788 5789 5790 5791 5793 5794 5795 5796 5797 5799 5800 5801 5802 5803 5804 5805 5807 5808 5808 5808 5808 5808 5808 5808 5809 5809 5809 5809 5808 5808 5807 5806 5805 5804 5803 5802 5801 5800 5799 5797 5796 5794 5792 5790 5789 5787 5786 5784 5783 5781 5780 5778 5776 5774 5772 5769 5767 5765 5763 5760 5757 5754 5751 5748 5746 5743 5740 5737 5734 5731 5727 5724 5721 5718 5715 5712 5709 5706 5705 5702
5779 5780 5782 5784 5785 5786 5787 5788 5790 5791 5792 5793 5794 5795 5796 5798 5799 5800 5801 5802 5803 5805 5805 5806 5806 5806 5806 5806 5806 5806 5806 5806 5806 5806 5805 5804 5803 5802 5801 5800 5799 5798 5797 5795 5794 5792 5790 5788 5787 5785 5784 5782 5781 5779 5778 5776 5774 5772 5770 5768 5766 5763 5761 5758 5756 5753 5750 5746 5743 5741 5738 5735 5732 5729 5725 5722 5718 5715 5712 5709 5706 5702 5699 5697 5695
5777 5778 5780 5781 5783 5784 5785 5786 5788 5788 5790 5791 5792 5794 5795 5796 5797 5798 5800 5801 5802 5803 5803 5803 5804 5804 5804 5804 5804 5804 5804 5804 5803 5803 5802 5801 5800 5799 5798 5797 5796 5795 5793 5792 5790 5788 5786 5785 5783 5782 5780 5779 5777 5775 5773 5771 5769 5768 5766 5764 5762 5759 5757 5754 5752 5749 5745 5742 5739 5736 5732 5730 5727 5723 5720 5716 5713 5709 5706 5702 5699 5696 5693 5689 5687
5775 5776 5777 5779 5781 5782 5783 5784 5785 5786 5788 5789 5791 5792 5793 5794 5795 5797 5798 5798 5800 5800 5801 5801 5802 5802 5802 5802 5802 5802 5802 5802 5801 5800 5799 5798 5797 5796 5795 5794 5793 5791 5790 5788 5786 5784 5783 5781 5780 5778 5777 5775 5773 5771 5769 5767 5765 5764 5762 5760 5758 5755 5752 5750 5747 5744 5741 5737 5734 5731 5727 5724 5721 5718 5714 5710 5706 5703 5700 5696 5693 5689 5686 5683 5679
5773 5774 5775 5777 5779 5780 5781 5783 5784 5785 5786 5788 5789 5790 5791 5793 5794 5794 5795 5796 5798 5798 5799 5799 5800 5800 5800 5800 5800 5800 5800 5799 5798 5798 5797 5796 5795 5793 5792 5791 5789 5787 5786 5784 5783 5781 5779 5778 5776 5775 5773 5771 5769 5767 5765 5763 5762 5760 5758 5756 5753 5751 5748 5745 5742 5740 5736 5733 5729 5726 5722 5719 5715 5712 5708 5704 5700 5697 5693 5689 5686 5682 5679 5675 5672
5771 5772 5773 5775 5777 5778 5780 5781 5782 5783 5784 5786 5787 5788 5790 5791 5791 5792 5793 5794 5795 5796 5797 5797 5798 5798 5798 5798 5797 5797 5797 5797 5796 5795 5794 5793 5791 5790 5789 5787 5785 5784 5782 5780 5779 5777 5776 5774 5773 5771 5769 5767 5765 5764 5762 5760 5759 5757 5754 5751 5749 5746 5743 5741 5738 5735 5732 5728 5725 5721 5717 5713 5710 5706 5702 5698 5694 5690 5687 5683 5679 5675 5671 5668 5664
5769 5770 5771 5773 5775 5776 5778 5779 5780 5781 5783 5784 5785 5787 5788 5788 5789 5790 5791 5792 5793 5793 5794 5795 5795 5795 5795 5795 5795 5795 5794 5793 5793 5792 5790 5789 5788 5786 5785 5783 5782 5780 5778 5777 5775 5774 5772 5771 5769 5767 5766 5764 5762 5761 5759 5757 5755 5753 5750 5748 5745 5742 5739 5736 5733 5730 5727 5724 5720 5716 5711 5707 5704 5700 5697 5692 5688 5684 5680 5676 5672 5668 5665 5661 5657
5766 5767 5769 5770 5772 5774 5775 5776 5777 5779 5780 5782 5783 5785 5786 5786 5787 5788 5789 5790 5790 5791 5791 5792 5792 5792 5792 5792 5792 5791 5791 5790 5789 5788 5787 5785 5784 5783 5781 5780 5778 5776 5775 5773 5772 5770 5769 5767 5765 5764 5762 5761 5759 5757 5756 5753 5751 5749 5746 5744 5741 5738 5735 5732 5728 5725 5722 5718 5715 5711 5706 5702 5698 5694 5691 5687 5683 5679 5674 5670 5666 5662 5658 5654 5650
5763 5765 5766 5768 5769 5771 5773 5774 5775 5776 5778 5779 5781 5782 5783 5784 5785 5786 5786 5787 5788 5788 5788 5789 5789 5789 5789 5789 5788 5788 5787 5786 5785 5784 5783 5782 5780 5779 5778 5776 5774 5773 5771 5770 5768 5767 5765 5764 5762 5760 5759 5757 5756 5754 5752 5750 5748 5745 5743 5740 5737 5734 5731 5727 5724 5720 5717 5713 5709 5706 5702 5697 5692 5688 5684 5681 5677 5673 5669 5664 5660 5656 5652 5648 5644
5761 5763 5764 5766 5767 5768 5770 5771 5772 5774 5775 5776 5778 5779 5781 5782 5782 5782 5783 5784 5785 5785 5785 5786 5786 5786 5786 5785 5785 5784 5784 5783 5782 5781 5780 5778 5777 5776 5774 5773 5771 5769 5768 5767 5765 5764 5762 5760 5759 5757 5756 5754 5753 5751 5749 5747 5744 5742 5739 5736 5733 5730 5727 5723 5719 5716 5713 5708 5704 5700 5696 5692 5687 5683 5678 5674 5670 5666 5662 5658 5654 5650 5646 5642 5637
5759 5760 5762 5763 5764 5766 5767 5768 5769 5771 5773 5774 5775 5776 5777 5778 5779 5779 5780 5781 5782 5782 5782 5782 5783 5783 5783 5782 5782 5781 5780 5780 5779 5778 5776 5775 5774 5772 5771 5769 5768 5766 5765 5763 5762 5761 5759 5757 5756 5754 5753 5751 5749 5747 5745 5743 5741 5738 5735 5732 5729 5726 5723 5719 5715 5711 5708 5704 5699 5695 5691 5687 5682 5678 5673 5669 5664 5660 5656 5652 5648 5644 5639 5635 5631
5756 5758 5759 5760 5761 5763 5764 5765 5767 5768 5770 5771 5772 5773 5774 5775 5775 5776 5777 5778 5778 5779 5779 5779 5780 5780 5779 5779 5778 5778 5777 5777 5776 5774 5773 5772 5770 5769 5767 5766 5764 5763 5762 5760 5759 5757 5756 5755 5753 5751 5750 5748 5746 5744 5742 5740 5737 5735 5732 5729 5726 5722 5719 5715 5711 5706 5702 5698 5694 5690 5686 5682 5678 5674 5669 5664 5660 5656 5651 5647 5642 5638 5633 5628 5624
5753 5755 5756 5757 5758 5759 5761 5762 5763 5765 5766 5768 5769 5769 5771 5772 5772 5773 5773 5774 5775 5775 5776 5776 5776 5776 5776 5776 5775 5775 5774 5773 5772 5771 5770 5768 5767 5765 5764 5763 5761 5760 5758 5757 5756 5755 5753 5752 5750 5749 5747 5745 5743 5741 5739 5737 5734 5731 5728 5725 5722 5719 5715 5711 5707 5702 5698 5694 5690 5686 5681 5678 5674 5670 5666 5661 5656 5652 5647 5642 5638 5633 5628 5623 5617
5750 5751 5753 5754 5755 5756 5757 5758 5760 5761 5762 5764 5765 5766 5767 5768 5768 5769 5770 5771 5772 5772 5772 5772 5773 5773 5773 5772 5772 5771 5771 5770 5769 5768 5766 5765 5764 5762 5761 5759 5758 5757 5756 5754 5753 5752 5750 5749 5748 5746 5745 5743 5741 5738 5736 5733 5731 5728 5725 5722 5718 5714 5711 5707 5702 5698 5694 5690 5686 5682 5677 5674 5670 5666 5662 5658 5653 5648 5643 5638 5634 5629 5624 5618 5612
5747 5748 5750 5752 5753 5754 5754 5755 5756 5757 5759 5760 5761 5762 5764 5764 5765 5766 5767 5767 5768 5768 5769 5769 5769 5770 5769 5769 5768 5768 5767 5766 5765 5764 5763 5762 5760 5759 5758 5756 5755 5754 5753 5752 5750 5749 5748 5746 5745 5743 5742 5740 5737 5735 5733 5730 5727 5724 5721 5718 5714 5710 5706 5702 5698 5694 5690 5686 5682 5678 5674 5670 5666 5662 5658 5654 5650 5645 5640 5635 5630 5625 5619 5613 5607
5745 5746 5747 5749 5750 5751 5751 5752 5753 5754 5756 5757 5758 5759 5760 5760 5761 5762 5763 5764 5764 5765 5765 5766 5766 5766 5766 5765 5765 5764 5764 5763 5762 5761 5760 5758 5757 5756 5755 5753 5752 5751 5750 5749 5748 5747 5745 5744 5742 5741 5739 5737 5734 5732 5730 5727 5724 5721 5718 5714 5710 5706 5702 5698 5694 5690 5686 5682 5679 5675 5671 5667 5663 5659 5655 5650 5646 5641 5637 5632 5626 5620 5615 5609 5603
5743 5744 5745 5746 5747 5747 5748 5749 5750 5751 5753 5754 5755 5756 5756 5757 5758 5759 5759 5760 5761 5762 5762 5762 5763 5763 5762 5762 5761 5761 5760 5759 5758 5757 5756 5755 5754 5753 5752 5751 5750 5749 5747 5746 5745 5744 5742 5741 5739 5738 5736 5733 5731 5729 5726 5724 5721 5717 5714 5710 5707 5703 5698 5694 5691 5687 5683 5679 5675 5671 5667 5664 5660 5656 5651 5647 5642 5638 5633 5628 5623 5617 5611 5605 5599
5740 5741 5742 5742 5743 5744 5745 5746 5747 5748 5750 5751 5751 5752 5753 5753 5754 5756 5757 5757 5758 5759 5759 5759 5759 5759 5759 5758 5757 5757 5756 5756 5755 5754 5753 5752 5751 5750 5749 5748 5747 5746 5744 5743 5742 5741 5740 5738 5736 5735 5733 5730 5728 5726 5723 5720 5717 5714 5710 5707 5703 5699 5695 5691 5687 5684 5680 5676 5672 5668 5665 5661 5657 5652 5648 5644 5640 5635 5630 5625 5620 5614 5609 5603 5597
5736 5737 5738 5738 5739 5740 5741 5742 5744 5745 5747 5747 5748 5748 5749 5750 5751 5753 5754 5754 5755 5755 5755 5756 5756 5756 5755 5754 5754 5753 5753 5752 5751 5751 5750 5749 5748 5747 5746 5745 5744 5743 5741 5740 5739 5738 5737 5735 5733 5731 5729 5727 5725 5722 5720 5717 5714 5710 5707 5703 5699 5695 5692 5688 5684 5681 5677 5673 5669 5666 5662 5658 5654 5649 5645 5641 5636 5631 5626 5622 5617 5612 5606 5600 5594
5731 5732 5733 5734 5735 5736 5737 5739 5740 5742 5743 5743 5744 5745 5746 5747 5748 5749 5750 5751 5751 5751 5751 5752 5752 5752 5751 5751 5750 5750 5750 5749 5748 5747 5746 5745 5745 5744 5743 5742 5741 5740 5738 5737 5736 5735 5734 5732 5730 5728 5726 5724 5722 5719 5716 5713 5710 5707 5703 5699 5696 5692 5689 5685 5681 5678 5674 5671 5667 5663 5659 5655 5651 5647 5643 5638 5633 5628 5624 5619 5614 5609 5603 5597 5591
5726 5727 5729 5730 5731 5732 5734 5735 5736 5738 5739 5739 5740 5741 5742 5743 5745 5746 5746 5747 5747 5747 5748 5748 5748 5748 5748 5747 5747 5746 5746 5745 5745 5744 5743 5742 5742 5741 5740 5739 5738 5737 5735 5734 5733 5732 5731 5729 5727 5726 5723 5721 5719 5716 5713 5710 5707 5703 5700 5696 5693 5689 5686 5683 5679 5675 5672 5668 5664 5660 5656 5652 5649 5645 5640 5635 5630 5626 5621 5616 5611 5606 5600 5594 5588
5722 5723 5724 5725 5727 5728 5730 5731 5732 5733 5734 5735 5736 5737 5738 5740 5741 5742 5742 5743 5743 5743 5744 5744 5744 5744 5744 5744 5743 5743 5743 5742 5742 5741 5740 5739 5738 5737 5737 5736 5735 5733 5732 5731 5730 5729 5728 5726 5724 5722 5720 5718 5715 5713 5710 5707 5704 5700 5697 5693 5690 5687 5684 5680 5677 5673 5670 5666 5662 5658 5654 5651 5647 5642 5638 5633 5629 5624 5620 5615 5609 5603 5597 5592 5586
5717 5719 5720 5722 5723 5724 5726 5726 5727 5729 5730 5731 5732 5733 5734 5736 5737 5737 5738 5738 5739 5739 5740 5740 5740 5740 5740 5740 5740 5739 5739 5739 5738 5738 5737 5736 5735 5734 5733 5732 5731 5730 5729 5728 5727 5726 5725 5723 5721 5719 5717 5715 5712 5710 5707 5704 5701 5698 5694 5691 5688 5685 5681 5678 5674 5671 5667 5664 5660 5657 5653 5649 5645 5641 5636 5632 5628 5623 5619 5613 5608 5602 5596 5591 5585
5713 5715 5717 5718 5719 5720 5721 5722 5723 5725 5726 5727 5728 5729 5730 5731 5732 5733 5734 5734 5735 5735 5736 5736 5737 5737 5737 5736 5736 5736 5736 5735 5735 5734 5733 5732 5732 5731 5730 5729 5728 5727 5726 5725 5724 5723 5721 5720 5718 5716 5714 5712 5709 5707 5704 5701 5698 5695 5692 5689 5686 5682 5679 5676 5672 5669 5665 5662 5659 5655 5652 5648 5643 5639 5635 5631 5627 5622 5617 5612 5607 5601 5596 5590 5585
5709 5711 5712 5713 5714 5715 5717 5718 5719 5721 5722 5723 5724 5725 5726 5727 5728 5729 5730 5730 5730 5731 5732 5732 5733 5733 5733 5732 5732 5732 5732 5732 5731 5730 5730 5729 5728 5727 5727 5726 5725 5724 5723 5722 5721 5720 5718 5717 5715 5714 5711 5709 5707 5704 5702 5699 5695 5692 5689 5686 5683 5680 5677 5674 5671 5667 5664 5660 5657 5654 5650 5646 5642 5637 5633 5630 5625 5621 5616 5611 5606 5601 5596 5590 5584
5706 5707 5708 5709 5710 5711 5712 5714 5715 5716 5718 5719 5720 5721 5722 5723 5724 5725 5725 5726 5726 5727 5728 5729 5729 5729 5729 5729 5729 5729 5729 5728 5727 5727 5726 5725 5725 5724 5723 5723 5722 5721 5720 5719 5718 5717 5716 5714 5712 5710 5708 5706 5704 5702 5699 5696 5693 5690 5687 5684 5681 5678 5675 5672 5669 5666 5662 5659 5656 5652 5648 5644 5640 5636 5633 5629 5625 5620 5615 5610 5606 5600 5595 5590 5584
5703 5703 5704 5705 5706 5706 5708 5709 5711 5712 5713 5715 5716 5717 5717 5718 5719 5720 5721 5721 5722 5723 5724 5724 5725 5724 5724 5725 5725 5725 5725 5724 5723 5723 5722 5722 5721 5720 5720 5719 5718 5718 5717 5717 5715 5714 5713 5711 5709 5707 5705 5703 5701 5699 5696 5693 5690 5687 5685 5682 5679 5676 5673 5670 5667 5664 5661 5658 5654 5650 5647 5643 5639 5636 5632 5628 5624 5619 5614 5610 5605 5600 5595 5589 5583
5698 5699 5700 5701 5701 5702 5703 5705 5706 5707 5709 5710 5711 5712 5713 5714 5715 5716 5716 5717 5718 5719 5720 5720 5720 5720 5720 5721 5721 5721 5720 5720 5719 5719 5719 5718 5718 5717 5716 5716 5715 5715 5714 5713 5712 5711 5710 5708 5706 5704 5703 5701 5698 5696 5693 5690 5688 5685 5682 5680 5677 5674 5671 5669 5666 5663 5660 5657 5653 5650 5646 5642 5638 5635 5631 5627 5623 5619 5614 5610 5605 5600 5595 5589 5582
5693 5694 5695 5696 5697 5698 5699 5700 5701 5703 5704 5705 5706 5707 5708 5709 5710 5711 5711 5713 5714 5715 5716 5716 5716 5716 5716 5717 5717 5717 5716 5716 5715 5715 5715 5715 5714 5713 5712 5712 5712 5712 5711 5710 5709 5708 5707 5705 5703 5702 5700 5698 5696 5693 5690 5688 5685 5682 5680 5678 5675 5672 5670 5667 5665 5662 5659 5656 5652 5649 5645 5642 5638 5635 5631 5627 5623 5619 5614 5610 5605 5600 5595 5589 5583
5688 5690 5691 5692 5693 5694 5695 5696 5697 5698 5700 5701 5701 5702 5703 5704 5705 5706 5707 5708 5709 5711 5711 5711 5711 5711 5712 5712 5712 5712 5712 5711 5711 5711 5711 5710 5710 5709 5709 5709 5709 5708 5708 5707 5706 5705 5703 5702 5700 5699 5697 5695 5693 5690 5688 5685 5683 5680 5678 5676 5673 5671 5669 5666 5664 5661 5658 5655 5652 5648 5645 5642 5639 5635 5631 5627 5623 5619 5614 5610 5605 5600 5595 5590 5585
5684 5685 5686 5687 5689 5690 5691 5692 5693 5694 5695 5696 5696 5698 5699 5700 5700 5701 5703 5704 5705 5706 5707 5707 5707 5707 5708 5708 5708 5708 5707 5707 5707 5707 5707 5706 5706 5706 5706 5706 5705 5705 5704 5703 5703 5701 5700 5699 5697 5696 5694 5692 5690 5687 5685 5683 5681 5679 5677 5674 5672 5670 5668 5665 5663 5660 5657 5654 5651 5648 5645 5642 5639 5635 5631 5627 5623 5619 5614 5610 5605 5600 5596 5590 5585
5679 5681 5682 5683 5684 5685 5686 5688 5689 5690 5690 5691 5692 5693 5695 5695 5696 5697 5698 5699 5701 5701 5702 5702 5702 5703 5703 5704 5703 5703 5703 5703 5702 5702 5701 5701 5701 5702 5702 5702 5702 5701 5700 5700 5699 5698 5697 5696 5694 5693 5691 5689 5687 5685 5683 5681 5679 5677 5675 5673 5671 5669 5667 5664 5662 5659 5656 5653 5650 5647 5644 5641 5638 5634 5630 5627 5623 5618 5614 5610 5605 5600 5596 5591 5586